User: anonymous   Login
Location: F M Corners
(41.2198°N, 80.4709°W)
Time: 09:04:39
(UTC+00:00)
Language:

Lacrosse 5 - Orbit

View from above orbital plane
View from above orbital plane
View from above satellite
View from above satellite

Ground track
Ground track

The orbit data is extracted from the following two-line orbital elements,

1 28646U 05016A   21016.72143726 0.00000000  00000-0  00000-0 0    03
2 28646  57.0106 280.0838 0009643 137.8992 222.1008 14.51858205    01
Epoch (UTC): 16 January 2021 17:18:52
Eccentricity: 0.0009643
inclination: 57.0106°
perigee height: 713 km
apogee height: 726 km
right ascension of ascending node: 280.0838°
argument of perigee: 137.8992°
revolutions per day: 14.51858205
mean anomaly at epoch: 222.1008°
orbit number at epoch: 0

The dashed part of the orbit path shows where the satellite is in the earth's shadow,  

DLR